Retour au catalogue

FENGYUN 1C DEB

ActifPO
NORAD 30274·DEBRIS·🇨🇳 China

Lancé May 10, 1999 depuis Taiyuan Satellite Launch Center

Loading…

Prochains Passages (prochaines 24 heures)

TLE

FraisSource: Space-Track

Époque: Sep 14, 2026, 10:14 UTC

1 30274U 99025YK  26257.42645788  .00005245  00000-0  11924-2 0  9992
2 30274  99.3181  61.9317 0002876 100.7920 288.3790 14.56443791 22171

Suivez FENGYUN 1C DEB en temps réel avec AllMySat

Download on the App Store